Weather in Kamienna Gora

Poland     50°46′41″N   16°01′38″E
temp.,
°C
wind,
m/s
gust,
m/s
humid.,
%
clouds,
%
prec.,
mm/h
press.,
hPa
HPBL,
m
27 february, sat
sat2701:00+2nw3992100 0.2 1032592
04:00+2nw5119080 0.0 1032790
07:00+1nw499487 0.0 1033692
10:00+3nw598191 0.0 1034641
13:00+4nw587463 0.0 1036637
16:00+3nw477610 0.0 1035559
19:000nw239511 0.0 103677
22:000nw239438 0.0 1037241
28 february, sun
sun2801:00−1nw239162 0.0 1038293
04:00−2wsw119338 0.0 103721
07:00−2sw128337 0.0 103725
10:00+4nw13545 0.0 1036432
13:00+7nw24623 0.0 1035632
16:00+6nw25660 0.0 1033515
19:00+2nw22920 0.0 103436
22:00+3nnw269565 0.0 1035288
1 march, mon
mon101:00+2nnw249672 0.0 1036209
04:00+2n249678 0.0 1035259
07:000nnw119872 0.0 103624
10:00+6ene11678 0.0 1036315
13:00+8ese12554 0.0 1036759
16:00+8ese22590 0.0 1034632
19:00+3s11810 0.0 103522
22:00+2sw12840 0.0 103522
2 march, tue
tue201:00+1ssw22850 0.0 103524
04:00+1ssw23880 0.0 103439
07:00+1ssw22860 0.0 103435
10:00+6ssw23610 0.0 1034277
13:00+10s22480 0.0 1033475
16:00+9s24550 0.0 1032338
19:00+4ssw23690 0.0 103244
22:00+2ssw23800 0.0 103253
3 march, wed
wed301:00+1ssw22870 0.0 103226
04:00+1ssw22830 0.0 103122
07:00+1ssw22810 0.0 103125
10:00+7ssw125726 0.0 1031281
13:00+11ssw125014 0.0 1030680
16:00+9s22630 0.0 1028383
19:00+4ssw12870 0.0 102823
22:00+3sw228726 0.0 102725